Location: Maccacari
(45.1333°N, 11.1333°E)
Time: 02:43:22
(UTC+00:00)

Vanguard 2 - Pass Details

Date: 22 January 2021
Orbit: 552 x 2938 km, 32.9° (Epoch: 05 March)

Event Time Altitude Azimuth Distance (km) Brightness Sun altitude
Rises 18:14:17 0° 244° (WSW) 2,885 11.7 -21.9°
Reaches altitude 10° 18:16:40 10° 229° (SW) 2,131 10.5 -22.3°
Maximum altitude 18:20:33 24° 176° (S) 1,688 9.2 -23.0°
Enters shadow 18:22:33 20° 148° (SSE) 2,013 9.4 -23.3°
Drops below altitude 10° 18:25:49 10° 125° (SE) 2,978 - -23.9°
Sets 18:29:52 0° 114° (ESE) 4,377 - -24.6°
